sat.trackr.live / text

‹ back to catalog

LILACSAT-2

NORAD 40908 · 2015-049K

PAYLOAD ACTIVE UNKNOWN

§ Identity

Operator
Country
PRC
Launch date
2015-09-19
Launch site
TAISC
Launch vehicle
Mass (kg)
RCS (m²)
0.10

Purposes: comms

External: N2YO · Heavens-Above · Gunter

§ Orbital elements

Epoch: 2026-09-20T04:27:01.978848Z

Period
92.64 min
Inclination
97.4557°
Eccentricity
0.0004614
Mean motion
15.54434736 rev/d
Perigee alt
400.7 km
Apogee alt
406.9 km
Semi-major
6,781.9 km
B*
2.0581e-4
RAAN
303.7944°
Arg perigee
259.0623°
Mean anomaly
101.0112°
Rev number
61,049

§ Raw data

LILACSAT-21 40908U 15049K   26263.18543957  .00013422  00000+0  20581-3 0  99912 40908  97.4557 303.7944 0004614 259.0623 101.0112 15.54434736610490

JSON: /api/v1/satellites/40908 · /tle

For live sub-satellite position, see the globe view (requires WebGL).

§ Visibility from observer

Set your observer location to see the next 7 days of passes ≥ 10°. The values pass through the URL so the page stays shareable.

No JS? Fill the form by hand. The geolocation button needs JavaScript.

§ Radio — SatNOGS DB

ModeDescriptionDownlinkUplink
AFSK APRS Digipeater 144.390 MHz 144.390 MHz
BPSK BPSK Telemetry 437.200 MHz
CW CW Beacon 437.200 MHz
GFSK GFSK Telemetry 437.225 MHz
FM FM Transponder (inactive) 437.200 MHz 144.350 MHz

5 transmitters · refreshed weekly from db.satnogs.org